EW7698 Hilton Head SC US current weather conditions

sailwx.info

Wind from 277 at 2 knots gusting 9

Air temperature 10.6° C
Dewpoint 8.1° C

Last reported at 2020-Jan-25 14:53 UTC.
Time now 2020-Jan-25 15:19 UTC

Location: N 32°11' W 080°42'.
View on Google Maps.

See reports from other nearby stations

  
Tides and Currents Weather Stations Pressure Air Temp Water Temp Dewpoint Dewpoint Depression Visibility Wind Speed Wind Dir Waves Ship Positions
date/time (UTC)wind fromknots sea level pressurealtimeterstation pressurevisibilityair tempwater tempwave heightnotes
2020-Jan-25 14:53 277 2 gusting 9 10.6
2020-Jan-25 14:48 290 4 gusting 9 10.6
2020-Jan-25 14:43 250 3 gusting 6 10.6
2020-Jan-25 14:38 305 4 gusting 11 10.6
2020-Jan-25 14:33 282 5 gusting 11 10.6
2020-Jan-25 14:28 280 2 gusting 8 10.6
2020-Jan-25 14:23 300 3 gusting 8 10.6
2020-Jan-25 14:18 284 3 gusting 7 10.0
2020-Jan-25 14:13 281 3 gusting 7 10.0
2020-Jan-25 14:08 200 2 gusting 6 10.0
2020-Jan-25 14:03 290 4 gusting 7 10.0
2020-Jan-25 13:58 222 2 gusting 7 10.0
2020-Jan-25 13:53 287 3 gusting 9 10.0
2020-Jan-25 13:48 248 3 gusting 8 10.0
2020-Jan-25 13:43 301 3 gusting 8 10.0
2020-Jan-25 13:38 260 4 gusting 6 9.4
2020-Jan-25 13:33 265 2 gusting 6 9.4
2020-Jan-25 13:28 289 3 gusting 6 9.4
2020-Jan-25 13:23 238 2 gusting 6 9.4
2020-Jan-25 13:18 282 2 gusting 5 9.4
2020-Jan-25 13:13 246 2 gusting 5 9.4
2020-Jan-25 13:08 276 0 gusting 4 9.4
2020-Jan-25 13:03 267 0 gusting 3 9.4
2020-Jan-25 12:58 270 0 gusting 3 9.4
2020-Jan-25 12:53 267 9.4
2020-Jan-25 12:48 242 9.4
2020-Jan-25 12:43 247 0 gusting 2 9.4
2020-Jan-25 12:38 288 9.4
2020-Jan-25 12:33 288 9.4
2020-Jan-25 12:28 290 0 gusting 3 9.4
2020-Jan-25 12:23 286 0 gusting 3 9.4
2020-Jan-25 12:18 268 0 gusting 3 9.4
2020-Jan-25 12:13 262 0 gusting 2 9.4
2020-Jan-25 12:08 236 10.0
2020-Jan-25 12:03 257 0 gusting 3 10.0
2020-Jan-25 11:58 252 0 gusting 2 10.0
2020-Jan-25 11:53 248 10.0
2020-Jan-25 11:48 292 0 gusting 3 10.0
2020-Jan-25 11:43 268 0 gusting 3 10.0
2020-Jan-25 11:38 286 1 gusting 3 10.0
2020-Jan-25 11:33 274 0 gusting 2 10.0
2020-Jan-25 11:28 290 0 gusting 3 10.0
2020-Jan-25 11:23 273 0 gusting 3 10.6
2020-Jan-25 11:18 280 0 gusting 4 10.6
2020-Jan-25 11:13 296 1 gusting 4 10.6
2020-Jan-25 11:08 279 1 gusting 4 10.6
2020-Jan-25 11:03 275 1 gusting 3 10.6
2020-Jan-25 10:58 288 0 gusting 4 10.6
2020-Jan-25 10:53 261 0 gusting 4 10.6
2020-Jan-25 10:48 273 0 gusting 3 10.6
2020-Jan-25 10:43 257 0 gusting 4 10.6
2020-Jan-25 10:38 247 0 gusting 3 11.1
2020-Jan-25 10:33 267 0 gusting 4 11.1
2020-Jan-25 10:28 286 0 gusting 4 11.1
2020-Jan-25 10:23 270 1 gusting 4 11.1
2020-Jan-25 10:18 292 1 gusting 4 11.1
2020-Jan-25 10:13 284 1 gusting 3 11.1
2020-Jan-25 10:08 271 0 gusting 2 11.1
2020-Jan-25 10:03 265 0 gusting 3 11.7
2020-Jan-25 09:58 284 0 gusting 4 11.7
2020-Jan-25 09:53 266 11.7
2020-Jan-25 09:48 283 1 gusting 6 11.7
2020-Jan-25 09:43 257 1 gusting 6 11.7
2020-Jan-25 09:38 263 1 gusting 5 11.7
2020-Jan-25 09:33 251 1 gusting 5 11.7
2020-Jan-25 09:28 272 0 gusting 5 11.7
2020-Jan-25 09:23 231 1 gusting 6 12.2
2020-Jan-25 09:18 271 1 gusting 6 12.2
2020-Jan-25 09:13 271 1 gusting 5 12.2
2020-Jan-25 09:08 268 1 gusting 5 12.2
2020-Jan-25 09:03 270 1 gusting 5 12.2
2020-Jan-25 08:58 275 1 gusting 5 12.8
2020-Jan-25 08:53 316 1 gusting 5 12.8
2020-Jan-25 08:48 279 1 gusting 4 12.8
2020-Jan-25 08:43 211 1 gusting 5 12.8
2020-Jan-25 08:38 314 2 gusting 5 12.8
2020-Jan-25 08:33 313 1 gusting 5 13.3
2020-Jan-25 08:28 281 2 gusting 10 13.3
2020-Jan-25 08:23 276 3 gusting 10 13.3
2020-Jan-25 08:18 295 3 gusting 7 13.9
2020-Jan-25 08:13 293 2 gusting 5 13.9
2020-Jan-25 08:08 292 2 gusting 5 13.9
2020-Jan-25 08:03 272 1 gusting 5 13.9
2020-Jan-25 07:58 275 1 gusting 6 14.4
2020-Jan-25 07:53 280 4 gusting 6 14.4
2020-Jan-25 07:48 259 1 gusting 6 14.4
2020-Jan-25 07:43 269 2 gusting 6 14.4
2020-Jan-25 07:38 292 1 gusting 6 14.4
2020-Jan-25 07:33 260 2 gusting 6 14.4
2020-Jan-25 07:28 247 2 gusting 8 14.4
2020-Jan-25 07:23 254 3 gusting 8 15.0
2020-Jan-25 07:18 270 2 gusting 5 15.0
2020-Jan-25 07:13 302 1 gusting 6 15.0
2020-Jan-25 07:08 281 1 gusting 6 15.0
2020-Jan-25 07:03 267 1 gusting 4 15.0
2020-Jan-25 06:58 277 0 gusting 4 15.0
2020-Jan-25 06:53 275 0 gusting 4 15.0
2020-Jan-25 06:48 259 0 gusting 3 15.6
2020-Jan-25 06:43 265 0 gusting 3 15.6
2020-Jan-25 06:38 281 0 gusting 3 15.6
2020-Jan-25 06:33 272 0 gusting 3 15.6
2020-Jan-25 06:28 276 0 gusting 3 15.6
2020-Jan-25 06:23 275 0 gusting 4 15.6
2020-Jan-25 06:18 277 0 gusting 4 15.6
2020-Jan-25 06:13 269 0 gusting 3 15.6
2020-Jan-25 06:08 275 0 gusting 3 15.6
2020-Jan-25 06:03 269 15.6
2020-Jan-25 05:58 274 15.6
2020-Jan-25 05:53 274 15.6
2020-Jan-25 05:48 274 15.0
2020-Jan-25 05:43 274 15.0
2020-Jan-25 05:38 274 15.0
2020-Jan-25 05:33 274 15.0
2020-Jan-25 05:28 274 14.4
2020-Jan-25 05:23 274 14.4
2020-Jan-25 05:18 274 14.4
2020-Jan-25 05:13 274 14.4
2020-Jan-25 05:08 274 14.4
2020-Jan-25 05:03 274 14.4
2020-Jan-25 04:58 274 15.0
2020-Jan-25 04:53 274 15.0
2020-Jan-25 04:48 274 15.0
2020-Jan-25 04:43 274 15.0
2020-Jan-25 04:38 274 15.0
2020-Jan-25 04:33 274 15.0
2020-Jan-25 04:28 274 15.6
2020-Jan-25 04:23 274 15.6
2020-Jan-25 04:18 274 15.6
2020-Jan-25 04:13 274 15.6
2020-Jan-25 04:08 274 15.6
2020-Jan-25 04:03 274 15.6
2020-Jan-25 03:58 274 15.6
2020-Jan-25 03:53 274 15.6
2020-Jan-25 03:48 274 15.6
2020-Jan-25 03:43 274 15.6
2020-Jan-25 03:38 274 15.6
2020-Jan-25 03:33 274 15.6
2020-Jan-25 03:28 274 15.6
2020-Jan-25 03:23 302 0 gusting 1 15.6
2020-Jan-25 03:18 302 15.6
2020-Jan-25 03:13 302 15.6
2020-Jan-25 03:08 302 15.6
2020-Jan-25 03:03 302 0 gusting 2 15.6
2020-Jan-25 02:58 298 0 gusting 3 15.6
2020-Jan-25 02:53 274 15.6
2020-Jan-25 02:48 033 15.6
2020-Jan-25 02:43 033 15.6
2020-Jan-25 02:38 033 15.6
2020-Jan-25 02:33 033 15.6
2020-Jan-25 02:28 033 15.6
2020-Jan-25 02:23 033 15.0
2020-Jan-25 02:18 033 15.0
2020-Jan-25 02:13 331 15.0
2020-Jan-25 02:08 328 0 gusting 1 15.6
2020-Jan-25 02:03 321 15.6
2020-Jan-25 01:58 321 15.6
2020-Jan-25 01:53 321 15.6
2020-Jan-25 01:48 321 15.6
2020-Jan-25 01:43 321 15.6
2020-Jan-25 01:38 315 15.6
2020-Jan-25 01:33 310 15.0
2020-Jan-25 01:28 310 15.0
2020-Jan-25 01:23 310 0 gusting 1 15.0
2020-Jan-25 01:18 308 15.0
2020-Jan-25 01:13 307 15.0
2020-Jan-25 01:08 308 15.0
2020-Jan-25 01:03 308 15.6
2020-Jan-25 00:58 308 15.6
2020-Jan-25 00:53 308 15.6
2020-Jan-25 00:48 307 15.6
2020-Jan-25 00:43 307 15.6
2020-Jan-25 00:38 307 15.6
2020-Jan-25 00:33 308 15.6
2020-Jan-25 00:28 307 15.6
2020-Jan-25 00:23 307 15.6
2020-Jan-25 00:18 308 15.6
2020-Jan-25 00:13 308 15.0
2020-Jan-25 00:08 307 15.0
2020-Jan-25 00:03 308 15.0
2020-Jan-24 23:58 307 15.0
2020-Jan-24 23:53 307 15.0
2020-Jan-24 23:48 307 15.0
2020-Jan-24 23:43 307 15.0
2020-Jan-24 23:38 308 15.0
2020-Jan-24 23:33 308 15.6
2020-Jan-24 23:28 308 15.6
2020-Jan-24 23:23 308 15.6
2020-Jan-24 23:18 308 15.6
2020-Jan-24 23:13 307 15.6
2020-Jan-24 23:08 307 15.6
2020-Jan-24 23:03 307 15.6
2020-Jan-24 22:58 308 15.6
2020-Jan-24 22:53 307 15.6
2020-Jan-24 22:48 307 15.0
2020-Jan-24 22:43 307 15.0
2020-Jan-24 22:38 307 15.0
2020-Jan-24 22:33 307 15.0
2020-Jan-24 22:28 307 15.0
2020-Jan-24 22:23 307 15.0
2020-Jan-24 22:18 307 15.0
2020-Jan-24 22:13 307 15.0
2020-Jan-24 22:08 327 15.0
2020-Jan-24 22:03 355 15.0
2020-Jan-24 21:58 005 15.0
2020-Jan-24 21:53 012 15.0
2020-Jan-24 21:48 017 15.0
2020-Jan-24 21:43 017 15.0
2020-Jan-24 21:38 017 15.0
2020-Jan-24 21:33 017 15.0
2020-Jan-24 21:28 017 15.0
2020-Jan-24 21:23 017 15.0
2020-Jan-24 21:18 017 15.0
2020-Jan-24 21:13 017 15.0
2020-Jan-24 21:08 017 15.0
2020-Jan-24 21:03 017 15.0
2020-Jan-24 20:58 017 15.0
2020-Jan-24 20:53 017 15.6
2020-Jan-24 20:48 017 15.6
2020-Jan-24 20:43 017 15.6
2020-Jan-24 20:38 017 15.6
2020-Jan-24 20:33 017 15.6
2020-Jan-24 20:28 017 15.6
2020-Jan-24 20:23 017 0 gusting 1 15.6
2020-Jan-24 20:18 068 15.6
2020-Jan-24 20:13 068 15.6
2020-Jan-24 20:08 068 16.1
2020-Jan-24 20:03 068 16.1
2020-Jan-24 19:58 068 16.1
2020-Jan-24 19:53 068 16.1
2020-Jan-24 19:48 068 16.1
2020-Jan-24 19:43 068 16.1
2020-Jan-24 19:38 068 15.6
2020-Jan-24 19:33 068 15.6
2020-Jan-24 19:28 068 15.0
2020-Jan-24 19:23 068 15.0
2020-Jan-24 19:18 068 15.6
2020-Jan-24 19:13 068 15.6
2020-Jan-24 19:08 068 16.1
2020-Jan-24 19:03 068 16.1
2020-Jan-24 18:58 068 16.1
2020-Jan-24 18:53 068 16.1
2020-Jan-24 18:48 068 15.6
2020-Jan-24 18:43 080 16.1
2020-Jan-24 18:38 080 16.1
2020-Jan-24 18:33 080 16.1
2020-Jan-24 18:28 080 16.7
2020-Jan-24 18:23 080 16.1
2020-Jan-24 18:18 080 16.1
2020-Jan-24 18:13 080 15.6
2020-Jan-24 18:08 080 15.6
2020-Jan-24 18:03 080 15.6
2020-Jan-24 17:58 080 15.6
2020-Jan-24 17:53 080 15.6
2020-Jan-24 17:48 085 0 gusting 2 15.0
2020-Jan-24 17:43 084 0 gusting 2 15.0
2020-Jan-24 17:38 084 0 gusting 2 15.0
2020-Jan-24 17:33 087 0 gusting 2 15.0
2020-Jan-24 17:28 088 0 gusting 1 15.0
2020-Jan-24 17:23 086 15.0
2020-Jan-24 17:18 086 0 gusting 2 15.0
2020-Jan-24 17:13 086 0 gusting 4 14.4
2020-Jan-24 17:08 085 0 gusting 2 14.4
2020-Jan-24 17:03 084 0 gusting 2 14.4
2020-Jan-24 16:58 084 0 gusting 2 14.4
2020-Jan-24 16:53 086 0 gusting 1 14.4
2020-Jan-24 16:48 086 0 gusting 2 14.4
2020-Jan-24 16:43 086 1 gusting 2 14.4
2020-Jan-24 16:38 086 14.4
2020-Jan-24 16:33 087 0 gusting 3 14.4
2020-Jan-24 16:28 076 1 gusting 3 14.4
2020-Jan-24 16:23 086 1 gusting 3 13.9
2020-Jan-24 16:18 089 2 gusting 4 13.9
2020-Jan-24 16:13 086 1 gusting 5 13.9
2020-Jan-24 16:08 094 3 gusting 6 13.9
2020-Jan-24 16:03 089 3 gusting 5 13.9
2020-Jan-24 15:58 086 3 gusting 6 13.9
2020-Jan-24 15:53 075 3 gusting 6 13.3
2020-Jan-24 15:48 080 4 gusting 6 13.3
2020-Jan-24 15:43 093 5 gusting 6 13.3
2020-Jan-24 15:38 065 4 gusting 6 13.3
2020-Jan-24 15:33 085 4 gusting 7 12.8
2020-Jan-24 15:28 096 6 gusting 7 13.3
2020-Jan-24 15:23 088 4 gusting 6 13.3
2020-Jan-24 15:18 088 3 gusting 6 13.3
2020-Jan-24 15:13 079 3 gusting 5 13.3
2020-Jan-24 15:08 085 2 gusting 4 13.3
2020-Jan-24 15:03 084 4 gusting 5 13.3
2020-Jan-24 14:58 087 2 gusting 4 13.3
2020-Jan-24 14:53 088 1 gusting 4 13.3
2020-Jan-24 14:48 087 2 gusting 4 13.3
2020-Jan-24 14:43 086 13.3
2020-Jan-24 14:38 086 13.3
2020-Jan-24 14:33 087 13.3
2020-Jan-24 14:28 086 13.3
2020-Jan-24 14:23 087 13.3
2020-Jan-24 14:18 087 0 gusting 2 13.3
2020-Jan-24 14:13 087 0 gusting 2 13.3
2020-Jan-24 14:08 087 0 gusting 2 13.3
2020-Jan-24 14:03 085 1 gusting 2 13.3
2020-Jan-24 13:58 060 13.3
2020-Jan-24 13:53 060 13.3
2020-Jan-24 13:48 060 0 gusting 1 13.3
2020-Jan-24 13:43 079 0 gusting 2 13.3
2020-Jan-24 13:38 067 13.3
2020-Jan-24 13:33 092 0 gusting 5 13.3
2020-Jan-24 13:28 088 1 gusting 5 13.3
2020-Jan-24 13:23 075 13.3
2020-Jan-24 13:18 084 1 gusting 5 13.3
2020-Jan-24 13:13 083 1 gusting 3 13.3
2020-Jan-24 13:08 085 1 gusting 4 13.3
2020-Jan-24 13:03 051 13.3
2020-Jan-24 12:58 053 13.3
2020-Jan-24 12:53 049 13.3
2020-Jan-24 12:48 038 0 gusting 4 13.3
2020-Jan-24 12:43 053 1 gusting 5 13.3
2020-Jan-24 12:38 062 3 gusting 5 13.3
2020-Jan-24 12:33 034 0 gusting 2 13.3
2020-Jan-24 12:28 036 0 gusting 2 13.3
2020-Jan-24 12:23 323 0 gusting 4 13.3
2020-Jan-24 12:18 046 1 gusting 4 13.3
2020-Jan-24 12:13 054 1 gusting 4 13.3
2020-Jan-24 12:08 033 0 gusting 1 13.3
2020-Jan-24 12:03 032 0 gusting 2 13.3
2020-Jan-24 11:58 032 13.3
2020-Jan-24 11:53 057 2 gusting 5 13.3
2020-Jan-24 11:48 064 1 gusting 3 13.3
2020-Jan-24 11:43 067 1 gusting 3 13.3
2020-Jan-24 11:38 053 1 gusting 3 13.3
2020-Jan-24 11:33 040 0 gusting 2 13.3
2020-Jan-24 11:28 013 13.3
2020-Jan-24 11:23 013 13.3
2020-Jan-24 11:18 337 13.3
2020-Jan-24 11:13 030 13.3
2020-Jan-24 11:08 030 13.3
2020-Jan-24 11:03 030 13.3
2020-Jan-24 10:58 030 13.3
2020-Jan-24 10:53 030 13.3
2020-Jan-24 10:48 030 13.3
2020-Jan-24 10:43 030 0 gusting 4 13.3
2020-Jan-24 10:38 036 0 gusting 3 13.3
2020-Jan-24 10:33 028 0 gusting 3 13.3
2020-Jan-24 10:28 054 13.3
2020-Jan-24 10:23 054 0 gusting 2 13.3
2020-Jan-24 10:18 035 13.3
2020-Jan-24 10:13 040 13.3
2020-Jan-24 10:08 046 0 gusting 5 13.3
2020-Jan-24 10:03 087 0 gusting 6 13.3
2020-Jan-24 09:58 096 2 gusting 6 13.3
2020-Jan-24 09:53 075 3 gusting 6 13.3
2020-Jan-24 09:48 046 2 gusting 6 13.3
2020-Jan-24 09:43 058 2 gusting 4 13.3
2020-Jan-24 09:38 092 1 gusting 5 13.3
2020-Jan-24 09:33 038 1 gusting 5 13.3
2020-Jan-24 09:28 061 0 gusting 4 13.3
2020-Jan-24 09:23 090 13.3
2020-Jan-24 09:18 057 0 gusting 4 13.3
2020-Jan-24 09:13 076 2 gusting 6 13.3
2020-Jan-24 09:08 088 3 gusting 6 13.3
2020-Jan-24 09:03 082 3 gusting 7 13.3
2020-Jan-24 08:58 080 5 gusting 8 13.3
2020-Jan-24 08:53 086 6 gusting 8 13.3
2020-Jan-24 08:48 029 5 gusting 7 13.3
2020-Jan-24 08:43 059 3 gusting 7 13.3
2020-Jan-24 08:38 080 2 gusting 5 12.8
2020-Jan-24 08:33 087 3 gusting 6 12.8
2020-Jan-24 08:28 076 2 gusting 6 12.8
2020-Jan-24 08:23 088 4 gusting 6 12.8
2020-Jan-24 08:18 087 4 gusting 7 13.3
2020-Jan-24 08:13 080 5 gusting 7 13.3
2020-Jan-24 08:08 088 5 gusting 7 13.3
2020-Jan-24 08:03 093 4 gusting 7 13.3
2020-Jan-24 07:58 112 5 gusting 7 13.3
2020-Jan-24 07:53 089 4 gusting 6 13.3
2020-Jan-24 07:48 087 4 gusting 6 13.3
2020-Jan-24 07:43 101 3 gusting 6 13.3
2020-Jan-24 07:38 063 2 gusting 6 13.3
2020-Jan-24 07:33 039 3 gusting 7 13.3
2020-Jan-24 07:28 059 3 gusting 7 13.3
2020-Jan-24 07:23 009 3 gusting 7 13.3
2020-Jan-24 07:18 092 4 gusting 7 13.3
2020-Jan-24 07:13 043 3 gusting 6 13.3
2020-Jan-24 07:08 036 3 gusting 6 13.3
2020-Jan-24 07:03 049 3 gusting 6 13.3
2020-Jan-24 06:58 049 2 gusting 8 13.3
2020-Jan-24 06:53 064 3 gusting 8 13.3
2020-Jan-24 06:48 101 3 gusting 6 13.3
2020-Jan-24 06:43 078 3 gusting 6 13.3
2020-Jan-24 06:38 093 4 gusting 6 13.3
2020-Jan-24 06:33 081 4 gusting 6 13.3
2020-Jan-24 06:28 047 4 gusting 7 13.3
2020-Jan-24 06:23 086 3 gusting 10 12.8
2020-Jan-24 06:18 055 4 gusting 10 12.8
2020-Jan-24 06:13 069 2 gusting 6 12.8
2020-Jan-24 06:08 071 4 gusting 7 12.8
2020-Jan-24 06:03 089 5 gusting 8 12.8
2020-Jan-24 05:58 078 4 gusting 8 12.8
2020-Jan-24 05:53 065 3 gusting 7 12.8
2020-Jan-24 05:48 078 3 gusting 8 12.8
2020-Jan-24 05:43 049 5 gusting 8 13.3
2020-Jan-24 05:38 070 5 gusting 8 13.3
2020-Jan-24 05:33 068 5 gusting 8 13.3
2020-Jan-24 05:28 090 5 gusting 8 13.3
2020-Jan-24 05:23 092 4 gusting 8 12.8
2020-Jan-24 05:18 100 4 gusting 7 12.8
2020-Jan-24 05:13 054 4 gusting 8 12.8
2020-Jan-24 05:08 072 4 gusting 8 12.8
2020-Jan-24 05:03 043 4 gusting 12 12.8
2020-Jan-24 04:58 076 4 gusting 12 12.8
2020-Jan-24 04:53 123 3 gusting 11 12.2
2020-Jan-24 04:48 065 5 gusting 7 12.2
2020-Jan-24 04:43 054 5 gusting 9 12.2
2020-Jan-24 04:38 044 5 gusting 9 12.2
2020-Jan-24 04:33 064 4 gusting 9 12.2
2020-Jan-24 04:28 084 4 gusting 9 12.2
2020-Jan-24 04:23 116 5 gusting 9 12.2
2020-Jan-24 04:18 053 4 gusting 9 11.7
2020-Jan-24 04:13 088 5 gusting 9 11.7
2020-Jan-24 04:08 020 4 gusting 10 11.7
2020-Jan-24 04:03 074 5 gusting 10 11.7
2020-Jan-24 03:58 071 6 gusting 13 11.7
2020-Jan-24 03:53 086 6 gusting 13 11.7
2020-Jan-24 03:48 097 6 gusting 11 11.7
2020-Jan-24 03:43 052 6 gusting 9 11.7
2020-Jan-24 03:38 083 5 gusting 9 12.2
2020-Jan-24 03:33 072 6 gusting 11 12.2
2020-Jan-24 03:28 095 5 gusting 11 12.2
2020-Jan-24 03:23 034 5 gusting 10 12.2
2020-Jan-24 03:18 094 4 gusting 9 12.2
2020-Jan-24 03:13 043 5 gusting 8 12.2
2020-Jan-24 03:08 024 4 gusting 7 12.2
2020-Jan-24 03:03 082 4 gusting 8 12.2
2020-Jan-24 02:58 066 4 gusting 8 12.2
2020-Jan-24 02:53 049 4 gusting 10 12.2
2020-Jan-24 02:48 057 5 gusting 10 12.2
2020-Jan-24 02:43 044 5 gusting 9 12.2
2020-Jan-24 02:38 049 4 gusting 8 12.2
2020-Jan-24 02:33 113 6 gusting 10 12.2
2020-Jan-24 02:28 017 5 gusting 11 12.2
2020-Jan-24 02:23 095 6 gusting 11 12.2
2020-Jan-24 02:18 050 6 gusting 13 12.2
2020-Jan-24 02:13 065 4 gusting 8 12.2
2020-Jan-24 02:08 106 4 gusting 7 12.2
2020-Jan-24 02:03 046 4 gusting 8 12.2
2020-Jan-24 01:58 044 5 gusting 10 12.2
2020-Jan-24 01:53 080 6 gusting 10 12.2
2020-Jan-24 01:48 086 5 gusting 9 12.2
2020-Jan-24 01:43 092 4 gusting 8 12.2
2020-Jan-24 01:38 084 4 gusting 8 12.2
2020-Jan-24 01:33 052 5 gusting 10 12.2
2020-Jan-24 01:28 049 4 gusting 9 12.2
2020-Jan-24 01:23 065 5 gusting 9 12.2
2020-Jan-24 01:18 091 4 gusting 8 12.2
2020-Jan-24 01:13 038 5 gusting 8 12.2
2020-Jan-24 01:08 046 4 gusting 11 12.2
2020-Jan-24 01:03 045 5 gusting 11 12.2
2020-Jan-24 00:58 057 4 gusting 8 12.2
2020-Jan-24 00:53 107 3 gusting 8 12.2
2020-Jan-24 00:48 055 3 gusting 6 12.2
2020-Jan-24 00:43 075 3 gusting 6 12.2
2020-Jan-24 00:38 098 3 gusting 6 12.2
2020-Jan-24 00:33 037 1 gusting 6 12.2
2020-Jan-24 00:28 098 2 gusting 7 12.2
2020-Jan-24 00:23 062 4 gusting 9 12.2
2020-Jan-24 00:18 034 5 gusting 9 12.2
2020-Jan-24 00:13 093 5 gusting 9 12.2
2020-Jan-24 00:08 090 4 gusting 12 12.2
2020-Jan-24 00:03 098 5 gusting 12 12.2
2020-Jan-23 23:58 044 5 gusting 9 12.2
2020-Jan-23 23:53 053 6 gusting 9 11.7
2020-Jan-23 23:48 054 5 gusting 9 11.7
2020-Jan-23 23:43 069 4 gusting 8 11.7
2020-Jan-23 23:38 039 5 gusting 8 11.7
2020-Jan-23 23:33 074 4 gusting 8 11.7
2020-Jan-23 23:28 080 5 gusting 8 11.7
2020-Jan-23 23:23 070 4 gusting 9 11.7
2020-Jan-23 23:18 074 4 gusting 9 11.7
2020-Jan-23 23:13 083 5 gusting 10 11.7
2020-Jan-23 23:08 091 5 gusting 10 11.7
2020-Jan-23 23:03 067 3 gusting 8 11.7
2020-Jan-23 22:58 063 4 gusting 9 11.7
2020-Jan-23 22:53 080 4 gusting 8 11.7
2020-Jan-23 22:48 074 3 gusting 8 11.7
2020-Jan-23 22:43 090 4 gusting 7 11.7
2020-Jan-23 22:38 068 5 gusting 9 12.2
2020-Jan-23 22:33 115 6 gusting 10 12.2
2020-Jan-23 22:28 096 6 gusting 10 12.2
2020-Jan-23 22:23 098 6 gusting 11 12.2
2020-Jan-23 22:18 099 7 gusting 11 12.2
2020-Jan-23 22:13 095 6 gusting 7 12.2
2020-Jan-23 22:08 079 3 gusting 6 12.2
2020-Jan-23 22:03 071 4 gusting 7 12.2
2020-Jan-23 21:58 107 5 gusting 8 12.2
2020-Jan-23 21:53 069 5 gusting 8 12.2
2020-Jan-23 21:48 087 6 gusting 9 12.2
2020-Jan-23 21:43 098 6 gusting 10 12.2
2020-Jan-23 21:38 081 6 gusting 10 12.2
2020-Jan-23 21:33 059 5 gusting 6 12.2
2020-Jan-23 21:28 089 4 gusting 6 12.2
2020-Jan-23 21:23 086 3 gusting 7 12.2
2020-Jan-23 21:18 080 5 gusting 9 12.2
2020-Jan-23 21:13 078 6 gusting 9 12.2
2020-Jan-23 21:08 083 5 gusting 7 12.2
2020-Jan-23 21:03 044 5 gusting 7 12.8
2020-Jan-23 20:58 049 3 gusting 7 12.8
2020-Jan-23 16:18 022 2 gusting 6 10.0
2020-Jan-23 16:13 336 2 gusting 6 10.0
2020-Jan-23 16:03 340 2 gusting 6 10.0
2020-Jan-23 15:58 044 2 gusting 6 10.0
2020-Jan-23 15:53 055 2 gusting 5 9.4
2020-Jan-23 15:48 301 1 gusting 5 9.4
2020-Jan-23 15:43 292 1 gusting 6 9.4
2020-Jan-23 15:38 222 1 gusting 6 9.4
2020-Jan-23 15:33 071 1 gusting 6 9.4
2020-Jan-23 15:28 298 3 gusting 5 9.4
2020-Jan-23 15:23 053 2 gusting 6 9.4
2020-Jan-23 15:18 058 0 gusting 6 8.9
2020-Jan-23 15:13 323 2 gusting 6 8.9
2020-Jan-23 15:08 049 2 gusting 6 8.9
2020-Jan-23 15:03 292 2 gusting 6 8.9